Regional Weather Roundup
Issued by NWS

Home | Current Version | Previous Version | Graphics & Text | Print | Product List | Glossary On
Versions: 1 2 3 4 5 6 7 8 9 10 11 12 13 14 15 16 17 18 19 20 21 22 23 24 25 26 27 28 29 30 31 32 33 34 35 36 37 38 39 40 41 42 43 44 45 46 47 48 49 50
000
ASUS45 KPSR 220610
RWRAZ

ARIZONA REGIONAL HOURLY WEATHER ROUNDUP
NATIONAL WEATHER SERVICE PHOENIX AZ
1100 PM MST SUN SEP 21 2014

NOTE: FAIR INDICATES FEW OR NO CLOUDS BELOW 12,000 FEET WITH NO
SIGNIFICANT WEATHER AND/OR OBSTRUCTIONS TO VISIBILITY.

AZZ001>003-036-220700-
NORTHWEST ARIZONA

CITY           SKY/WX    TMP DP  RH WIND       PRES   REMARKS
BULLHEAD CITY  CLEAR     86  39  19 CALM      29.87S
KINGMAN        CLEAR     65  37  35 CALM      30.07S
6HR MIN TEMP:  65; 6HR MAX TEMP:  86;

$$

AZZ004>008-015-016-018-220700-
NORTH CENTRAL ARIZONA

CITY           SKY/WX    TMP DP  RH WIND       PRES   REMARKS
GRAND CANYON   CLEAR     46  43  89 CALM      30.30R
6HR MIN TEMP:  46; 6HR MAX TEMP:  74;

PRESCOTT       CLEAR     63  45  51 S9        30.20R
6HR MIN TEMP:  63; 6HR MAX TEMP:  79;

FLAGSTAFF      CLEAR     51  46  83 CALM      30.33S
6HR MIN TEMP:  50; 6HR MAX TEMP:  70;

PAYSON         CLEAR     66  55  68 CALM      30.23S
PAGE           CLEAR     71  57  61 SE3       30.12R
6HR MIN TEMP:  70; 6HR MAX TEMP:  83;

$$

AZZ009>014-017-220700-
NORTHEAST ARIZONA

CITY           SKY/WX    TMP DP  RH WIND       PRES   REMARKS
WINSLOW        PTCLDY    68  57  68 CALM      30.20R
6HR MIN TEMP:  68; 6HR MAX TEMP:  86;

SAINT JOHNS    CLOUDY    65  59  81 CALM      30.24S
6HR MIN TEMP:  64; 6HR MAX TEMP:  78; 6HR PCP: TRACE;

SHOW LOW       PTCLDY    59  57  94 S7        30.31F
$$

AZZ023-220700-
GREATER PHOENIX AREA

CITY           SKY/WX    TMP DP  RH WIND       PRES   REMARKS
PHOENIX        CLEAR     90  57  32 CALM      29.89S
6HR MIN TEMP:  89; 6HR MAX TEMP:  98;

LUKE AFB       CLEAR     81  57  44 VRB5      29.90R
6HR MIN TEMP:  81; 6HR MAX TEMP:  97;

DEER VALLEY    CLEAR     83  55  38 NE7       29.92R
6HR MIN TEMP:  83; 6HR MAX TEMP:  96;

SCOTTSDALE     CLEAR     86  55  34 N3        29.94R
6HR MIN TEMP:  86; 6HR MAX TEMP:  96;

MESA-GATEWAY   PTCLDY    86  61  42 MISG      29.93S
$$

AZZ027-028-220700-
SOUTHWEST MARICOPA COUNTY AND PINAL COUNTY

CITY           SKY/WX    TMP DP  RH WIND       PRES   REMARKS
CASA GRANDE    CLEAR     82  55  39 CALM      29.94S
6HR MIN TEMP:  82; 6HR MAX TEMP:  95;

$$

AZZ503-504-507>509-220700-
SOUTHEAST ARIZONA

CITY           SKY/WX    TMP DP  RH WIND       PRES   REMARKS
TUCSON         PTCLDY    83  64  52 SE14      30.05R
6HR MIN TEMP:  82; 6HR MAX TEMP:  93;

DAVIS-MONTHAN  PTCLDY    80  64  59 SE16      30.03S
6HR MIN TEMP:  79; 6HR MAX TEMP:  91;

NOGALES        MOCLDY    71  63  75 CALM      30.13S
6HR MIN TEMP:  71; 6HR MAX TEMP:  74; 6HR PCP: TRACE;

SIERRA VISTA   CLOUDY    66  63  90 SE5       30.21R
6HR MIN TEMP:  65; 6HR MAX TEMP:  71; 6HR PCP: TRACE;

DOUGLAS        CLOUDY    67  65  93 E3        30.19S
6HR MIN TEMP:  67; 6HR MAX TEMP:  81; 6HR PCP:  0.16;

SAFFORD        MOCLDY    75  70  84 S6        30.06S
6HR MIN TEMP:  75; 6HR MAX TEMP:  82; 6HR PCP: TRACE;

$$

AZZ020-021-025-026-031-220700-
SOUTHWEST ARIZONA

CITY           SKY/WX    TMP DP  RH WIND       PRES   REMARKS
YUMA           CLEAR     83  52  34 S8        29.85R
6HR MIN TEMP:  83; 6HR MAX TEMP: 101;

$$

CAZ031-033-041-043-047-048-061-220700-
SOUTHERN CALIFORNIA

CITY           SKY/WX    TMP DP  RH WIND       PRES   REMARKS
DOWNTOWN L.A.  CLEAR     66  61  84 CALM      29.94F
6HR MIN TEMP:  66; 6HR MAX TEMP:  75;

L.A. AIRPORT   CLEAR     67  62  84 SW7       29.95S
6HR MIN TEMP:  67; 6HR MAX TEMP:  72;

SAN DIEGO      PTCLDY    71  62  73 N3        29.97R
6HR MIN TEMP:  71; 6HR MAX TEMP:  76;

BURBANK        CLEAR     67  59  75 CALM      29.95S
6HR MIN TEMP:  67; 6HR MAX TEMP:  78;

ONTARIO        CLEAR     68  58  70 SW3       29.97R
6HR MIN TEMP:  67; 6HR MAX TEMP:  84;

RIVERSIDE      CLEAR     68  59  73 W3        29.97R
6HR MIN TEMP:  68; 6HR MAX TEMP:  83;

PALM SPRINGS   CLEAR     84  54  35 VRB5      29.88R
6HR MIN TEMP:  84; 6HR MAX TEMP:  99;

EL CENTRO NAS  CLEAR     84  49  29 S8        29.82R
6HR MIN TEMP:  83; 6HR MAX TEMP: 101;

IMPERIAL       CLEAR     84  51  31 CALM      29.82R
6HR MIN TEMP:  82; 6HR MAX TEMP: 100;

BLYTHE         CLEAR     88  40  18 W6        29.84R
6HR MIN TEMP:  85; 6HR MAX TEMP: 101;

NEEDLES        CLEAR     84  46  26 SE5       29.88
6HR MIN TEMP:  84; 6HR MAX TEMP:  99;

$$

NVZ020-UTZ003-220700-
SOUTHERN NEVADA-UTAH

CITY           SKY/WX    TMP DP  RH WIND       PRES   REMARKS
LAS VEGAS      CLEAR     84  44  24 S8        29.92R
6HR MIN TEMP:  84; 6HR MAX TEMP:  93;

SALT LAKE CITY MOCLDY    62  56  80 CALM      30.14R
6HR MIN TEMP:  62; 6HR MAX TEMP:  69;

$$

NMZ009-TXZ055-220700-
NEW MEXICO-WEST TEXAS

CITY           SKY/WX    TMP DP  RH WIND       PRES   REMARKS
ALBUQUERQUE    CLOUDY    69  54  58 E13       30.30F
6HR MIN TEMP:  69; 6HR MAX TEMP:  76;

EL PASO        CLOUDY    72  63  73 E8        30.18S
6HR MIN TEMP:  72; 6HR MAX TEMP:  84;

$$


........................KEY........................
SKY/WX - SKY CONDITION/WEATHER
TMP    - TEMPERATURE IN FAHRENHEIT
DP     - DEW POINT IN FAHRENHEIT
RH     - RELATIVE HUMIDITY IN PERCENT
WIND   - DIRECTION AND SPEED IN MILES PER HOUR (MPH)
VRB    - VARIABLE WIND DIRECTION
PRES   - MEAN SEA LEVEL PRESSURE IN INCHES OF MERCURY
         F - FALLING PRESSURE   R - RISING PRESSURE
         S - STEADY PRESSURE
VSB    - VISIBILITY IN MILES
HX     - HEAT INDEX IN FAHRENHEIT
WCI    - WIND CHILL INDEX IN FAHRENHEIT
TC     - TEMPERATURE IN CELSIUS WHICH IS ALSO KNOWN AS
         TEMPERATURE IN CENTIGRADE
AFB    - AIR FORCE BASE
         LUKE AFB IS LUKE AIR FORCE BASE
         DAVIS-MONTHAN IS DAVIS-MONTHAN AIR FORCE BASE
NAS    - NAVAL AIR STATION
         EL CENTRO NAS IS EL CENTRO NAVAL AIR STATION
N/A    - NOT AVAILABLE



USA.gov is the U.S. government's official web portal to all federal, state and local government web resources and services.